[[{"header":{"parameterUnit":"m.s-1","parameterCategory":1,"la1":30.2991,"la2":30.254,"lo1":-89.0895,"lo2":-89.0444,"dy":0.0017,"dx":0.0017,"nx":28,"ny":28,"refTime":"2023-08-21T09:00:00:Z","depth":0,"parameterNumber":2,"parameterNumberName":"U-component_of_WINDS"},"data":[0,0,0,0,0,0,0,0,0,0,0,0,0,0,0,0,0,0,0,0,0,0,0,0,0,0,0,0,0,0,0,0,0,0,0,0,0,0,0,0,0,0,0,0,0,0,0,0,0,0,0,0,0,0,0,0,0,0,-7.4757,-7.4758,0,-7.4777,-7.4777,-7.4778,-7.4646,-7.4642,-7.4638,-7.4635,-7.4657,-7.4661,-7.4665,0,0,0,0,0,0,0,0,0,0,0,0,0,-7.4609,-7.4613,-7.4757,-7.4758,-7.4758,-7.4777,-7.4777,-7.4778,-7.4647,-7.4642,-7.4637,-7.4633,-7.4656,-7.466,-7.4665,0,0,0,0,0,0,0,0,0,0,0,0,0,-7.4656,-7.4614,-7.4757,-7.4695,-7.4689,-7.4777,-7.4777,-7.4778,-7.4647,-7.4642,-7.4636,-7.4631,-7.4654,-7.466,-7.4666,-7.4815,0,0,-7.4684,-7.4687,0,0,0,0,0,0,0,0,-7.4653,-7.4661,-7.4704,-7.4699,-7.4693,-7.4703,-7.4733,-7.479,-7.4649,-7.4663,-7.4635,-7.4628,-7.4677,-7.4681,-7.4697,-7.4816,-7.4817,-7.4685,-7.4689,-7.4691,-7.4693,0,0,0,0,0,0,0,-7.465,-7.466,-7.4765,-7.4704,-7.4698,-7.4667,-7.4667,-7.4743,-7.4701,-7.4662,-7.4652,-7.4656,-7.4673,-7.4691,-7.4696,-7.4817,-7.4685,-7.469,-7.4694,-7.4696,-7.5063,-7.5069,0,0,0,0,0,0,-7.4655,-7.4658,-7.4764,-7.4766,-7.4659,-7.4674,-7.4674,-7.4706,-7.47,-7.4694,-7.4661,-7.465,-7.4684,-7.4689,-7.4697,-7.4872,-7.4691,-7.4697,-7.47,-7.5057,-7.5065,-7.5071,0,0,0,0,0,0,-7.4653,-7.4666,-7.4764,-7.4709,-7.4719,-7.4682,-7.4719,-7.4709,-7.4727,-7.47,-7.4692,-7.4687,-7.4679,-7.4688,-7.4787,-7.4871,-7.47,-7.4705,-7.505,-7.506,-7.5068,-7.5223,0,0,0,0,0,0,-7.4649,-7.4666,-7.4721,-7.4712,-7.4723,-7.4853,-7.4724,-7.4713,-7.4738,-7.4723,-7.4722,-7.4716,-7.4676,-7.4779,-7.4793,-7.4876,-7.471,-7.5042,-7.5054,-7.5065,-7.5211,-7.5237,-7.5259,0,0,0,0,0,-7.4644,-7.4764,-7.4724,-7.4738,-7.4791,-7.4858,-7.4864,-7.4815,-7.4745,-7.4801,-7.4784,-7.4716,-7.486,-7.479,-7.4805,-7.4891,-7.5037,-7.5051,-7.5064,-7.52,-7.5232,-7.5258,0,0,0,0,0,0,-7.4783,-7.4761,-7.4717,-7.4837,-7.4851,-7.4836,-7.4904,-7.485,-7.4883,-7.4869,-7.4807,-7.4808,-7.4918,-7.4914,-7.4837,-7.5037,-7.4936,-7.4954,-7.5034,-7.5064,-7.5088,-7.5086,-7.4715,0,0,0,0,0,-7.4828,-7.4883,-7.4862,-7.497,-7.4979,-7.4941,-7.4968,-7.4929,-7.4941,-7.4946,-7.4936,-7.495,-7.4999,-7.5031,-7.5074,-7.5211,-7.5209,-7.5278,-7.5302,-7.5322,-7.5337,-7.5411,-7.5441,-7.5116,-7.5116,-7.5116,0,0,-7.492,-7.4915,-7.4954,-7.4998,-7.5003,-7.5063,-7.4946,-7.5014,-7.5058,-7.4956,-7.5048,-7.5043,-7.5055,-7.5174,-7.5226,-7.5175,-7.5427,-7.534,-7.5356,-7.536,-7.5428,-7.5459,-7.5486,-7.5126,-7.5124,-7.5122,0,0,-7.5119,-7.5121,-7.5212,-7.5221,-7.5231,-7.5206,-7.5229,-7.5223,-7.5215,-7.5308,-7.5233,-7.5286,-7.537,-7.5382,-7.54,-7.5609,-7.5549,-7.5625,-7.5751,-7.5823,-7.5849,-7.5871,-7.5946,-7.5974,-7.5641,-7.5641,-7.5641,0,-7.5233,-7.5319,-7.5266,-7.5339,-7.5361,-7.5273,-7.5365,-7.5377,-7.5402,-7.542,-7.5363,-7.5468,-7.547,-7.5592,-7.5643,-7.566,-7.5685,-7.5623,-7.585,-7.5871,-7.5892,-7.5962,-7.5991,-7.565,-7.5649,-7.5648,-7.5647,0,-7.5459,-7.5521,-7.5593,-7.5619,-7.565,-7.5733,-7.5693,-7.5731,-7.5692,-7.5673,-7.577,-7.577,-7.5813,-7.5839,-7.58,-7.5956,-7.5924,-7.586,-7.5757,-7.5933,-7.5998,-7.6025,-7.5663,-7.566,-7.5657,-7.5655,0,0,-7.5742,-7.574,-7.5768,-7.578,-7.5787,-7.5834,-7.5915,-7.5957,-7.5991,-7.6012,-7.6079,-7.6155,-7.6096,-7.6116,-7.6078,-7.6143,-7.631,-7.607,-7.6069,-7.6114,-7.6483,-7.653,-7.6562,-7.6271,-7.6276,-7.628,-7.6482,0,-7.5936,-7.6071,-7.6028,-7.6166,-7.6223,-7.6142,-7.6213,-7.6226,-7.6213,-7.626,-7.6245,-7.63,-7.6218,-7.623,-7.629,-7.6276,-7.6382,-7.6262,-7.6333,-7.6336,-7.633,-7.6596,-7.6646,-7.6836,-7.6507,-7.6511,-7.6514,0,-7.6179,-7.6211,-7.6355,-7.6355,-7.6378,-7.6441,-7.6478,-7.6524,-7.6539,-7.6525,-7.655,-7.65,-7.6581,-7.6481,-7.6592,-7.6511,-7.6539,-7.6537,-7.6543,-7.6546,-7.6434,-7.6606,-7.6895,-7.6924,-7.6554,-7.6551,-7.6548,0,-7.6371,-7.645,-7.6547,-7.656,-7.6562,-7.661,-7.6613,-7.6622,-7.6651,-7.6684,-7.6702,-7.6745,-7.6768,-7.6802,-7.6766,-7.6696,-7.6884,-7.678,-7.6875,-7.6876,-7.6916,-7.6913,-7.7213,-7.6937,-7.6936,-7.6936,-7.6935,0,-7.6591,-7.6682,-7.6633,-7.6692,-7.6793,-7.6744,-7.6846,-7.684,-7.685,-7.6908,-7.6842,-7.6899,-7.6848,-7.6901,-7.6874,-7.6971,-7.6982,-7.6974,-7.6965,-7.6979,-7.698,-7.6994,-7.698,-7.6943,-7.6941,-7.694,-7.6939,0,-7.682,-7.6791,-7.6891,-7.6887,-7.6889,-7.6963,-7.696,-7.7016,-7.6999,-7.7074,-7.7089,-7.7063,-7.7122,-7.709,-7.7151,-7.7133,-7.7259,-7.7233,-7.7254,-7.7246,-7.7343,-7.7334,-7.766,-7.7701,-7.74,-7.7403,-7.7406,0,-7.6962,-7.703,-7.7034,-7.7068,-7.7077,-7.7133,-7.7162,-7.7118,-7.7152,-7.7176,-7.723,-7.7283,-7.7323,-7.7422,-7.7409,-7.7456,-7.743,-7.7542,-7.7437,-7.7449,-7.7431,-7.7427,-7.7434,-7.7562,-7.7566,-7.7568,-7.7571,0,-7.7216,-7.7199,-7.7244,-7.7286,-7.7323,-7.7354,-7.7378,-7.7411,-7.7367,-7.741,-7.7469,-7.75,-7.7564,-7.7618,-7.7659,-7.7664,-7.7612,-7.7605,-7.7629,-7.7642,-7.7651,-7.7648,-7.731,-7.7596,-7.7594,-7.7592,-7.7591,-7.759,-7.7405,-7.7463,-7.7475,-7.7529,-7.7543,-7.7569,-7.7622,-7.7613,-7.7662,-7.7709,-7.7681,-7.7752,-7.7768,-7.7818,-7.7831,-7.7887,-7.7842,-7.7878,-7.7886,-7.7895,-7.7908,-7.7645,-7.7894,-7.7894,-7.7893,-7.7892,-7.7892,0,-7.7655,-7.766,-7.771,-7.7748,-7.7791,-7.7738,-7.7764,-7.7804,-7.7866,-7.7886,-7.7928,-7.7998,-7.8052,-7.8045,-7.8094,-7.814,-7.8118,-7.8155,-7.815,-7.8153,-7.7945,-7.7919,-7.8173,-7.8173,-7.8173,-7.8173,-7.8172,-7.8172,-7.779,-7.7885,-7.7871,-7.7975,-7.7979,-7.8047,-7.8067,-7.8092,-7.8107,-7.8188,-7.8233,-7.8228,-7.8238,-7.8289,-7.8336,-7.8333,-7.8354,-7.8401,-7.8389,-7.8195,-7.8167,-7.814,-7.8115,-7.8406,-7.8406,-7.8591,-7.8593,-7.8594]},{"header":{"parameterUnit":"m.s-1","parameterCategory":1,"la1":30.2991,"la2":30.254,"lo1":-89.0895,"lo2":-89.0444,"dy":0.0017,"dx":0.0017,"nx":28,"ny":28,"refTime":"2023-08-21T09:00:00:Z","depth":0,"parameterNumber":3,"parameterNumberName":"V-component_of_WINDS"},"data":[0,0,0,0,0,0,0,0,0,0,0,0,0,0,0,0,0,0,0,0,0,0,0,0,0,0,0,0,0,0,0,0,0,0,0,0,0,0,0,0,0,0,0,0,0,0,0,0,0,0,0,0,0,0,0,0,0,0,0.5789,0.579,0,0.5841,0.5842,0.5842,0.5949,0.5952,0.5954,0.5956,0.6004,0.6004,0.6003,0,0,0,0,0,0,0,0,0,0,0,0,0,0.578,0.5779,0.5789,0.579,0.579,0.5841,0.5842,0.5843,0.5949,0.5952,0.5954,0.5957,0.6004,0.6004,0.6003,0,0,0,0,0,0,0,0,0,0,0,0,0,0.5803,0.5779,0.5789,0.585,0.5856,0.5841,0.5842,0.5843,0.5948,0.5952,0.5955,0.5958,0.6005,0.6004,0.6003,0.5931,0,0,0.5999,0.5999,0,0,0,0,0,0,0,0,0.5801,0.5803,0.584,0.5846,0.5852,0.5892,0.5856,0.5872,0.5948,0.5913,0.5956,0.596,0.5964,0.5966,0.5969,0.5934,0.5936,0.5999,0.5999,0.5998,0.5998,0,0,0,0,0,0,0,0.58,0.5801,0.581,0.5841,0.5848,0.5874,0.5881,0.586,0.592,0.5916,0.5924,0.5929,0.5968,0.597,0.5971,0.5936,0.5999,0.5998,0.5998,0.5997,0.5847,0.5843,0,0,0,0,0,0,0.579,0.5799,0.5808,0.5811,0.5834,0.5871,0.5879,0.5876,0.592,0.593,0.5926,0.5934,0.597,0.5972,0.5973,0.5893,0.5998,0.5997,0.5996,0.585,0.5846,0.5842,0,0,0,0,0,0,0.5789,0.5789,0.5806,0.5807,0.5812,0.5868,0.5864,0.5875,0.5877,0.5928,0.5939,0.5917,0.5973,0.5975,0.5942,0.5896,0.5997,0.5996,0.5854,0.5849,0.5844,0.5731,0,0,0,0,0,0,0.5788,0.5788,0.5762,0.5806,0.5811,0.5774,0.5861,0.5874,0.5876,0.5886,0.5922,0.5931,0.5975,0.5943,0.594,0.5896,0.5995,0.5858,0.5852,0.5846,0.5739,0.5723,0.5709,0,0,0,0,0,0.5788,0.5727,0.576,0.5761,0.578,0.5771,0.5774,0.5827,0.5872,0.5846,0.5879,0.593,0.5902,0.5938,0.5937,0.5892,0.5861,0.5853,0.5846,0.5746,0.5726,0.5709,0,0,0,0,0,0,0.5674,0.5734,0.5771,0.5723,0.5742,0.5789,0.5757,0.5804,0.5808,0.5817,0.5882,0.589,0.5848,0.5867,0.5906,0.5826,0.589,0.5882,0.5814,0.5796,0.5781,0.5776,0.5994,0,0,0,0,0,0.5644,0.5633,0.5685,0.5638,0.5646,0.57,0.5698,0.5738,0.5758,0.5766,0.5796,0.5813,0.5809,0.5804,0.5802,0.5744,0.5753,0.5712,0.5697,0.5684,0.5676,0.5647,0.5629,0.5817,0.5818,0.5818,0,0,0.558,0.5612,0.56,0.5616,0.5635,0.5621,0.5705,0.5687,0.5677,0.5763,0.5734,0.5757,0.578,0.5734,0.5716,0.5749,0.5626,0.5675,0.5664,0.5662,0.5637,0.5619,0.5603,0.5812,0.5813,0.5814,0,0,0.5457,0.548,0.5444,0.5462,0.549,0.5527,0.5518,0.556,0.5579,0.5552,0.5616,0.5605,0.5595,0.561,0.5615,0.5502,0.5549,0.5499,0.5419,0.539,0.5376,0.5363,0.5321,0.5306,0.5491,0.5491,0.5491,0,0.5374,0.5357,0.5419,0.5397,0.5402,0.5482,0.5445,0.5459,0.5484,0.5486,0.5524,0.5514,0.5536,0.5494,0.5467,0.5469,0.5461,0.5494,0.5373,0.5361,0.535,0.5311,0.5295,0.5484,0.5485,0.5486,0.5486,0,0.5254,0.5241,0.5208,0.5233,0.5235,0.5205,0.5262,0.5256,0.5297,0.533,0.5301,0.533,0.5336,0.533,0.5368,0.5295,0.5315,0.5362,0.5427,0.5324,0.5289,0.5275,0.5475,0.5478,0.548,0.5481,0,0,0.5057,0.5119,0.5106,0.5119,0.5157,0.5148,0.5123,0.5131,0.5125,0.514,0.512,0.5112,0.5157,0.5163,0.5205,0.5179,0.5087,0.523,0.5232,0.5202,0.5007,0.497,0.4952,0.5121,0.5118,0.5116,0.5005,0,0.4942,0.4903,0.4959,0.4907,0.4897,0.4974,0.4952,0.4973,0.5004,0.4999,0.5033,0.5026,0.5086,0.509,0.5069,0.5103,0.5049,0.5112,0.5101,0.51,0.5091,0.4934,0.4894,0.4788,0.4992,0.499,0.4988,0,0.4801,0.4812,0.476,0.4804,0.4801,0.4781,0.4794,0.4788,0.4814,0.4838,0.4847,0.4897,0.4875,0.4941,0.4911,0.4953,0.4952,0.4968,0.4966,0.4965,0.5036,0.4927,0.4756,0.4739,0.4967,0.4969,0.497,0,0.4662,0.4664,0.4634,0.4642,0.4693,0.4677,0.4696,0.4726,0.4728,0.4739,0.4741,0.4748,0.4752,0.4756,0.4807,0.485,0.4771,0.4841,0.479,0.4788,0.4767,0.4767,0.4591,0.4769,0.477,0.477,0.477,0,0.4526,0.4491,0.4572,0.4553,0.4516,0.4581,0.4542,0.457,0.4596,0.4583,0.4651,0.4637,0.4706,0.47,0.474,0.4709,0.471,0.4729,0.4739,0.4721,0.4719,0.472,0.4728,0.4766,0.4767,0.4767,0.4768,0,0.4363,0.4417,0.4388,0.444,0.4452,0.4422,0.4466,0.445,0.4487,0.4469,0.4469,0.4526,0.4522,0.4575,0.458,0.4608,0.4558,0.4582,0.4549,0.4556,0.4502,0.4506,0.4319,0.4298,0.449,0.4488,0.4487,0,0.4272,0.4247,0.4297,0.4294,0.4311,0.4306,0.4309,0.4373,0.4373,0.4402,0.4382,0.4385,0.439,0.4381,0.4421,0.4427,0.4451,0.4385,0.4452,0.4435,0.4449,0.4449,0.4447,0.437,0.4368,0.4366,0.4364,0,0.4105,0.4133,0.4136,0.4148,0.415,0.4162,0.4179,0.4172,0.4242,0.4239,0.4237,0.4241,0.4249,0.425,0.4264,0.4284,0.4335,0.4344,0.4332,0.4312,0.4294,0.4302,0.451,0.4347,0.4349,0.435,0.4351,0.4352,0.3974,0.3956,0.3989,0.399,0.401,0.4024,0.4012,0.4049,0.4049,0.4061,0.4099,0.4091,0.4119,0.4143,0.4159,0.4153,0.4185,0.4168,0.4163,0.4158,0.4147,0.4297,0.4155,0.4156,0.4157,0.4157,0.4157,0,0.381,0.3835,0.3836,0.3858,0.3859,0.391,0.3932,0.3928,0.3921,0.3944,0.3948,0.3947,0.3949,0.3992,0.3999,0.3986,0.401,0.3985,0.3986,0.399,0.4118,0.4127,0.3966,0.3966,0.3966,0.3966,0.3966,0.3966,0.3724,0.3696,0.3728,0.3711,0.3738,0.3731,0.3739,0.3753,0.3772,0.3767,0.377,0.3799,0.383,0.384,0.3845,0.3857,0.3856,0.3824,0.3843,0.3962,0.3981,0.3998,0.4007,0.3823,0.3823,0.3716,0.3715,0.3714]}]]